Time,TemperatureF,DewpointF,PressureIn,WindDirection,WindDirectionDegrees,WindSpeedMPH,WindSpeedGustMPH,Humidity,HourlyPrecipIn,Conditions,Clouds,dailyrainin,SoftwareType,DateUTC
2013-07-10 00:01:00,65.0,45.0,-100.00,ESE,104,2.0,4.0,49,0.00,,,0.00,,2013-07-10 06:01:00,
2013-07-10 00:11:00,65.0,45.0,-100.00,East,99,3.0,4.0,49,0.00,,,0.00,,2013-07-10 06:11:00,
2013-07-10 00:32:00,64.0,39.0,-100.00,ESE,103,4.0,5.0,40,0.00,,,0.00,,2013-07-10 06:32:00,
2013-07-10 00:42:00,63.0,36.0,-100.00,East,100,2.0,3.0,37,0.00,,,0.00,,2013-07-10 06:42:00,
2013-07-10 00:52:00,63.0,36.0,-100.00,East,100,2.0,3.0,37,0.00,,,0.00,,2013-07-10 06:52:00,
2013-07-10 01:01:00,63.0,38.0,-100.00,East,97,2.0,3.0,39,0.00,,,0.00,,2013-07-10 07:01:00,
2013-07-10 01:11:00,63.0,41.0,-100.00,ENE,78,1.0,1.0,45,0.00,,,0.00,,2013-07-10 07:11:00,
2013-07-10 01:22:00,63.0,41.0,-100.00,ENE,78,1.0,1.0,45,0.00,,,0.00,,2013-07-10 07:22:00,
2013-07-10 01:32:00,63.0,42.0,-100.00,NNE,32,0.0,1.0,46,0.00,,,0.00,,2013-07-10 07:32:00,
2013-07-10 01:43:00,63.0,42.0,-100.00,NNE,32,0.0,1.0,46,0.00,,,0.00,,2013-07-10 07:43:00,
2013-07-10 01:53:00,63.0,42.0,-100.00,NNE,32,0.0,1.0,46,0.00,,,0.00,,2013-07-10 07:53:00,
2013-07-10 02:42:00,60.0,45.0,-100.00,East,100,1.0,3.0,58,0.00,,,0.00,,2013-07-10 08:42:00,
2013-07-10 02:53:00,60.0,45.0,-100.00,East,100,1.0,3.0,58,0.00,,,0.00,,2013-07-10 08:53:00,
2013-07-10 03:02:00,59.0,46.0,-100.00,ESE,104,2.0,3.0,60,0.00,,,0.00,,2013-07-10 09:02:00,
2013-07-10 03:12:00,59.0,46.0,-100.00,ESE,104,2.0,3.0,60,0.00,,,0.00,,2013-07-10 09:12:00,
2013-07-10 03:21:00,59.0,46.0,-100.00,ESE,104,2.0,3.0,60,0.00,,,0.00,,2013-07-10 09:21:00,
2013-07-10 03:32:00,58.0,45.0,-100.00,ESE,103,1.0,2.0,61,0.00,,,0.00,,2013-07-10 09:32:00,
2013-07-10 04:51:00,-999.0,-99.9,-100.00,NE,55,1.0,2.0,-999,-99.99,,,-99.99,,2013-07-10 10:51:00,
2013-07-10 05:00:00,-999.0,-99.9,-100.00,NE,55,1.0,2.0,-999,-99.99,,,-99.99,,2013-07-10 11:00:00,
2013-07-10 06:11:00,55.0,48.0,-100.00,East,100,0.0,0.0,77,0.00,,,0.00,,2013-07-10 12:11:00,
2013-07-10 06:22:00,55.0,48.0,-100.00,East,100,0.0,0.0,77,0.00,,,0.00,,2013-07-10 12:22:00,
2013-07-10 06:43:00,55.0,46.0,-100.00,East,97,1.0,2.0,72,0.00,,,0.00,,2013-07-10 12:43:00,
2013-07-10 06:53:00,55.0,46.0,-100.00,East,97,1.0,2.0,72,0.00,,,0.00,,2013-07-10 12:53:00,
2013-07-10 07:01:00,54.0,46.0,-100.00,East,92,1.0,2.0,74,0.00,,,0.00,,2013-07-10 13:01:00,
2013-07-10 07:11:00,54.0,46.0,-100.00,East,92,1.0,2.0,74,0.00,,,0.00,,2013-07-10 13:11:00,
2013-07-10 07:21:00,54.0,47.0,-100.00,East,96,1.0,1.0,77,0.00,,,0.00,,2013-07-10 13:21:00,
2013-07-10 07:42:00,54.0,48.0,-100.00,East,96,2.0,3.0,78,0.00,,,0.00,,2013-07-10 13:42:00,
2013-07-10 07:52:00,54.0,48.0,-100.00,East,96,2.0,3.0,78,0.00,,,0.00,,2013-07-10 13:52:00,
2013-07-10 08:11:00,55.0,48.0,-100.00,East,97,1.0,2.0,77,0.00,,,0.00,,2013-07-10 14:11:00,
2013-07-10 08:22:00,55.0,48.0,-100.00,East,97,1.0,2.0,77,0.00,,,0.00,,2013-07-10 14:22:00,
2013-07-10 08:43:00,57.0,48.0,-100.00,ENE,76,1.0,1.0,72,0.00,,,0.00,,2013-07-10 14:43:00,
2013-07-10 08:53:00,57.0,48.0,-100.00,ENE,76,1.0,1.0,72,0.00,,,0.00,,2013-07-10 14:53:00,
2013-07-10 09:22:00,62.0,52.0,-100.00,SSW,203,0.0,1.0,68,0.00,,,0.00,,2013-07-10 15:22:00,
2013-07-10 09:34:00,63.0,52.0,-100.00,NW,306,2.0,4.0,66,0.00,,,0.00,,2013-07-10 15:34:00,
2013-07-10 09:42:00,64.0,53.0,-100.00,WNW,301,1.0,2.0,66,0.00,,,0.00,,2013-07-10 15:42:00,
2013-07-10 09:52:00,64.0,53.0,-100.00,WNW,301,1.0,2.0,66,0.00,,,0.00,,2013-07-10 15:52:00,
2013-07-10 10:01:00,66.0,53.0,-100.00,NW,322,0.0,1.0,62,0.00,,,0.00,,2013-07-10 16:01:00,
2013-07-10 10:11:00,66.0,53.0,-100.00,NW,322,0.0,1.0,62,0.00,,,0.00,,2013-07-10 16:11:00,
2013-07-10 10:22:00,69.0,54.0,-100.00,West,263,0.0,2.0,58,0.00,,,0.00,,2013-07-10 16:22:00,
2013-07-10 10:33:00,71.0,47.0,-100.00,ESE,117,2.0,4.0,43,0.00,,,0.00,,2013-07-10 16:33:00,
2013-07-10 11:01:00,71.0,54.0,-100.00,SSW,202,1.0,2.0,55,0.00,,,0.00,,2013-07-10 17:01:00,
2013-07-10 11:11:00,71.0,55.0,-100.00,NW,312,3.0,4.0,57,0.00,,,0.00,,2013-07-10 17:11:00,
2013-07-10 11:23:00,71.0,55.0,-100.00,NW,312,3.0,4.0,57,0.00,,,0.00,,2013-07-10 17:23:00,
2013-07-10 11:32:00,74.0,55.0,-100.00,North,7,0.0,2.0,52,0.00,,,0.00,,2013-07-10 17:32:00,
2013-07-10 11:42:00,74.0,55.0,-100.00,North,7,0.0,2.0,52,0.00,,,0.00,,2013-07-10 17:42:00,
2013-07-10 11:53:00,74.0,55.0,-100.00,North,7,0.0,2.0,52,0.00,,,0.00,,2013-07-10 17:53:00,
2013-07-10 12:32:00,80.0,40.0,-100.00,SE,130,2.0,3.0,23,0.00,,,0.00,,2013-07-10 18:32:00,
2013-07-10 12:44:00,81.0,51.0,-100.00,SSW,196,2.0,3.0,36,0.00,,,0.00,,2013-07-10 18:44:00,
2013-07-10 13:01:00,83.0,45.0,-100.00,West,263,2.0,4.0,27,0.00,,,0.00,,2013-07-10 19:01:00,
2013-07-10 13:11:00,83.0,47.0,-100.00,South,175,2.0,4.0,28,0.00,,,0.00,,2013-07-10 19:11:00,
2013-07-10 13:21:00,83.0,47.0,-100.00,South,175,2.0,4.0,28,0.00,,,0.00,,2013-07-10 19:21:00,
2013-07-10 13:32:00,85.0,43.0,-100.00,SSE,150,2.0,5.0,24,0.00,,,0.00,,2013-07-10 19:32:00,
2013-07-10 13:42:00,85.0,43.0,-100.00,SSE,150,2.0,5.0,24,0.00,,,0.00,,2013-07-10 19:42:00,
2013-07-10 13:53:00,85.0,43.0,-100.00,SSE,150,2.0,5.0,24,0.00,,,0.00,,2013-07-10 19:53:00,
2013-07-10 14:01:00,87.0,39.0,-100.00,East,85,3.0,7.0,19,0.00,,,0.00,,2013-07-10 20:01:00,
2013-07-10 14:11:00,85.0,47.0,-100.00,SSW,200,3.0,5.0,27,0.00,,,0.00,,2013-07-10 20:11:00,
2013-07-10 14:22:00,85.0,47.0,-100.00,SSW,200,3.0,5.0,27,0.00,,,0.00,,2013-07-10 20:22:00,
2013-07-10 14:32:00,85.0,49.0,-100.00,SSW,195,4.0,5.0,28,0.00,,,0.00,,2013-07-10 20:32:00,
2013-07-10 14:43:00,87.0,44.0,-100.00,East,82,1.0,4.0,22,0.00,,,0.00,,2013-07-10 20:43:00,
2013-07-10 14:52:00,87.0,44.0,-100.00,East,82,1.0,4.0,22,0.00,,,0.00,,2013-07-10 20:52:00,
2013-07-10 15:01:00,89.0,35.0,-100.00,South,185,2.0,3.0,14,0.00,,,0.00,,2013-07-10 21:01:00,
2013-07-10 15:11:00,89.0,35.0,-100.00,South,185,2.0,3.0,14,0.00,,,0.00,,2013-07-10 21:11:00,
2013-07-10 15:21:00,89.0,35.0,-100.00,South,185,2.0,3.0,14,0.00,,,0.00,,2013-07-10 21:21:00,
2013-07-10 15:32:00,90.0,35.0,-100.00,NW,318,4.0,7.0,14,0.00,,,0.00,,2013-07-10 21:32:00,
2013-07-10 15:42:00,91.0,34.0,-100.00,West,267,2.0,5.0,13,0.00,,,0.00,,2013-07-10 21:42:00,
2013-07-10 15:52:00,91.0,34.0,-100.00,West,267,2.0,5.0,13,0.00,,,0.00,,2013-07-10 21:52:00,
2013-07-10 16:01:00,91.0,34.0,-100.00,NNW,333,3.0,6.0,13,0.00,,,0.00,,2013-07-10 22:01:00,
2013-07-10 16:11:00,92.0,34.0,-100.00,SSW,209,2.0,3.0,13,0.00,,,0.00,,2013-07-10 22:11:00,
2013-07-10 16:21:00,92.0,34.0,-100.00,SSW,209,2.0,3.0,13,0.00,,,0.00,,2013-07-10 22:21:00,
2013-07-10 16:33:00,92.0,34.0,-100.00,SSW,209,2.0,3.0,13,0.00,,,0.00,,2013-07-10 22:33:00,
2013-07-10 16:42:00,89.0,37.0,-100.00,SW,232,2.0,5.0,16,0.00,,,0.00,,2013-07-10 22:42:00,
2013-07-10 16:53:00,89.0,37.0,-100.00,SW,232,2.0,5.0,16,0.00,,,0.00,,2013-07-10 22:53:00,
2013-07-10 17:01:00,89.0,37.0,-100.00,SW,232,2.0,5.0,16,0.00,,,0.00,,2013-07-10 23:01:00,
2013-07-10 17:11:00,92.0,36.0,-100.00,WSW,240,2.0,4.0,14,0.00,,,0.00,,2013-07-10 23:11:00,
2013-07-10 17:21:00,92.0,36.0,-100.00,WSW,240,2.0,4.0,14,0.00,,,0.00,,2013-07-10 23:21:00,
2013-07-10 17:32:00,91.0,38.0,-100.00,SW,229,1.0,2.0,15,0.00,,,0.00,,2013-07-10 23:32:00,
2013-07-10 17:42:00,91.0,38.0,-100.00,SW,229,1.0,2.0,15,0.00,,,0.00,,2013-07-10 23:42:00,
2013-07-10 17:52:00,90.0,35.0,-100.00,SSW,205,2.0,5.0,15,0.00,,,0.00,,2013-07-10 23:52:00,
2013-07-10 18:01:00,89.0,34.0,-100.00,SW,217,2.0,4.0,14,0.00,,,0.00,,2013-07-11 00:01:00,
2013-07-10 18:22:00,89.0,36.0,-100.00,SE,128,2.0,5.0,15,0.00,,,0.00,,2013-07-11 00:22:00,
2013-07-10 18:32:00,87.0,37.0,-100.00,SW,216,2.0,4.0,17,0.00,,,0.00,,2013-07-11 00:32:00,
2013-07-10 18:42:00,87.0,36.0,-100.00,SW,222,3.0,5.0,16,0.00,,,0.00,,2013-07-11 00:42:00,
2013-07-10 18:52:00,87.0,36.0,-100.00,SW,222,3.0,5.0,16,0.00,,,0.00,,2013-07-11 00:52:00,
2013-07-10 19:01:00,87.0,36.0,-100.00,West,275,1.0,2.0,16,0.00,,,0.00,,2013-07-11 01:01:00,
2013-07-10 19:11:00,88.0,37.0,-100.00,SW,216,1.0,4.0,17,0.00,,,0.00,,2013-07-11 01:11:00,
2013-07-10 19:22:00,88.0,37.0,-100.00,SW,216,1.0,4.0,17,0.00,,,0.00,,2013-07-11 01:22:00,
2013-07-10 19:32:00,87.0,37.0,-100.00,WSW,247,2.0,3.0,17,0.00,,,0.00,,2013-07-11 01:32:00,
2013-07-10 19:43:00,87.0,35.0,-100.00,ESE,117,1.0,3.0,16,0.00,,,0.00,,2013-07-11 01:43:00,
2013-07-10 19:52:00,87.0,35.0,-100.00,ESE,117,1.0,3.0,16,0.00,,,0.00,,2013-07-11 01:52:00,
2013-07-10 20:01:00,86.0,40.0,-100.00,South,186,2.0,4.0,19,0.00,,,0.00,,2013-07-11 02:01:00,
2013-07-10 20:11:00,86.0,40.0,-100.00,South,186,2.0,4.0,19,0.00,,,0.00,,2013-07-11 02:11:00,
2013-07-10 20:22:00,84.0,38.0,-100.00,NW,326,0.0,2.0,20,0.00,,,0.00,,2013-07-11 02:22:00,
2013-07-10 20:32:00,84.0,38.0,-100.00,NW,326,0.0,2.0,20,0.00,,,0.00,,2013-07-11 02:32:00,
2013-07-10 20:43:00,81.0,39.0,-100.00,ESE,109,4.0,6.0,22,0.00,,,0.00,,2013-07-11 02:43:00,
2013-07-10 20:53:00,81.0,39.0,-100.00,ESE,109,4.0,6.0,22,0.00,,,0.00,,2013-07-11 02:53:00,
2013-07-10 21:01:00,81.0,41.0,-100.00,ESE,114,3.0,4.0,24,0.00,,,0.00,,2013-07-11 03:01:00,
2013-07-10 21:11:00,79.0,41.0,-100.00,ESE,113,3.0,4.0,26,0.00,,,0.00,,2013-07-11 03:11:00,
2013-07-10 21:21:00,79.0,41.0,-100.00,ESE,113,3.0,4.0,26,0.00,,,0.00,,2013-07-11 03:21:00,
2013-07-10 21:33:00,76.0,42.0,-100.00,ESE,109,3.0,3.0,30,0.00,,,0.00,,2013-07-11 03:33:00,
2013-07-10 21:42:00,76.0,42.0,-100.00,ESE,109,3.0,3.0,30,0.00,,,0.00,,2013-07-11 03:42:00,
2013-07-10 21:52:00,76.0,42.0,-100.00,ESE,109,3.0,3.0,30,0.00,,,0.00,,2013-07-11 03:52:00,
2013-07-10 22:01:00,74.0,42.0,-100.00,ESE,107,5.0,6.0,31,0.00,,,0.00,,2013-07-11 04:01:00,
2013-07-10 22:12:00,73.0,42.0,-100.00,ESE,106,5.0,5.0,33,0.00,,,0.00,,2013-07-11 04:12:00,
2013-07-10 22:22:00,73.0,42.0,-100.00,ESE,106,5.0,5.0,33,0.00,,,0.00,,2013-07-11 04:22:00,
2013-07-10 22:32:00,73.0,42.0,-100.00,ESE,106,5.0,5.0,33,0.00,,,0.00,,2013-07-11 04:32:00,
2013-07-10 22:53:00,72.0,43.0,-100.00,ESE,104,6.0,7.0,35,0.00,,,0.00,,2013-07-11 04:53:00,
2013-07-10 23:01:00,71.0,43.0,-100.00,ESE,110,6.0,7.0,36,0.00,,,0.00,,2013-07-11 05:01:00,
2013-07-10 23:12:00,71.0,43.0,-100.00,ESE,110,6.0,7.0,36,0.00,,,0.00,,2013-07-11 05:12:00,
2013-07-10 23:22:00,71.0,43.0,-100.00,ESE,110,6.0,7.0,36,0.00,,,0.00,,2013-07-11 05:22:00,
2013-07-10 23:32:00,70.0,41.0,-100.00,ESE,123,6.0,8.0,35,0.00,,,0.00,,2013-07-11 05:32:00,
2013-07-10 23:43:00,71.0,40.0,-100.00,ESE,117,5.0,7.0,32,0.00,,,0.00,,2013-07-11 05:43:00,
2013-07-10 23:52:00,71.0,40.0,-100.00,ESE,117,5.0,7.0,32,0.00,,,0.00,,2013-07-11 05:52:00,